Change the Weather History Date:

Tuesday, January 8, 2013

  Actual Average (KABQ) Record (KABQ)
Temperature  
Mean Temperature 35 °F 36 °F  
Max Temperature 53 °F 46 °F 62 °F (1948)
Min Temperature 17 °F 26 °F -15 °F (1913)
Degree Days  
Heating Degree Days 30 29  
Month to date heating degree days 236  
Since 1 July heating degree days 1993  
Cooling Degree Days 0 0  
Month to date cooling degree days 0  
Year to date cooling degree days 0  
Moisture  
Dew Point 14 °F    
Average Humidity 52    
Maximum Humidity 83    
Minimum Humidity 17    
Precipitation  
Precipitation 0.00 in 0.01 in 0.52 in (1939)
Month to date precipitation 0.10  
Year to date precipitation 0.10  
Snow  
Snow 0.00 in - - ()
Month to date snowfall  
Since 1 July snowfall  
Snow Depth -    
Sea Level Pressure  
Sea Level Pressure 30.05 in    
Wind  
Wind Speed 8 mph (North)    
Max Wind Speed 16 mph    
Max Gust Speed 18 mph    
Visibility 10 miles    
Events      
T = Trace of Precipitation, MM = Missing Value Source: NWS Daily Summary

Daily Weather History Graph

Daily Weather History Graph

Search for Another Location

Airport or City:

Trip Planner

Search our weather history database for the weather conditions in past years. The results will help you decide how hot, cold, wet, or windy it might be!

Date:

Astronomy

Jan. 08, 2013 Rise Set
Actual Time 7:15 AM MST 5:13 PM MST
Civil Twilight 6:47 AM MST 5:41 PM MST
Nautical Twilight 6:16 AM MST 6:12 PM MST
Astronomical Twilight 5:45 AM MST 6:43 PM MST
Moon 3:51 AM MST (1/8) 2:18 PM MST (1/8)
Length of Visible Light 10h 54m
Length of Day
9h 58m
Waning Crescent, 13% of the Moon is Illuminated
Jan 8
Waning Crescent
Jan 11
New
Jan 18
First Quarter
Jan 26
Full
Feb 3
Last Quarter

Hourly Weather History & Observations

Time (MST) Temp. Windchill Dew Point Humidity Pressure Visibility Wind Dir Wind Speed Gust Speed Precip Events Conditions
12:15 AM 26.1 °F 19.4 °F 13.6 °F 59% 29.96 in 10.0 mi NNW 5.8 mph - N/A   Clear
12:35 AM 23.4 °F 13.5 °F 12.7 °F 64% 29.96 in 10.0 mi NNW 9.2 mph - N/A   Clear
12:55 AM 27.5 °F 17.4 °F 16.3 °F 63% 29.96 in 10.0 mi NNW 11.5 mph - N/A   Clear
1:15 AM 28.9 °F 19.2 °F 16.2 °F 59% 29.97 in 10.0 mi NNW 11.5 mph - N/A   Clear
1:35 AM 26.6 °F 16.2 °F 15.6 °F 63% 29.98 in 10.0 mi North 11.5 mph - N/A   Clear
1:55 AM 28.0 °F 18.6 °F 16.5 °F 62% 29.99 in 10.0 mi North 10.4 mph - N/A   Clear
2:15 AM 27.7 °F 18.2 °F 16.9 °F 64% 29.99 in 10.0 mi North 10.4 mph - N/A   Clear
2:35 AM 29.7 °F 21.3 °F 18.5 °F 63% 29.99 in 10.0 mi North 9.2 mph - N/A   Clear
2:55 AM 27.1 °F 20.7 °F 17.6 °F 67% 29.99 in 10.0 mi North 5.8 mph - N/A   Clear
3:15 AM 26.6 °F 16.8 °F 17.2 °F 68% 29.98 in 10.0 mi NNW 10.4 mph - N/A   Clear
3:35 AM 24.4 °F 13.0 °F 16.5 °F 72% 29.97 in 10.0 mi NNW 12.7 mph - N/A   Clear
3:55 AM 26.6 °F 16.2 °F 17.2 °F 68% 29.95 in 10.0 mi NNW 11.5 mph - N/A   Clear
4:15 AM 23.7 °F 19.3 °F 16.2 °F 73% 29.96 in 10.0 mi North 3.5 mph - N/A   Clear
4:35 AM 22.8 °F 18.2 °F 15.3 °F 73% 29.96 in 10.0 mi North 3.5 mph - N/A   Clear
4:55 AM 23.2 °F 15.0 °F 16.0 °F 74% 29.97 in 10.0 mi North 6.9 mph - N/A   Clear
5:15 AM 22.1 °F 12.8 °F 14.9 °F 74% 29.98 in 10.0 mi North 8.1 mph - N/A   Clear
5:35 AM 21.6 °F 14.0 °F 14.9 °F 76% 29.98 in 10.0 mi NNE 5.8 mph - N/A   Clear
5:55 AM 18.3 °F 10.2 °F 12.9 °F 79% 29.99 in 10.0 mi North 5.8 mph - N/A   Clear
6:15 AM 19.4 °F 14.3 °F 13.6 °F 78% 29.99 in 10.0 mi NNW 3.5 mph - N/A   Clear
6:35 AM - - - N/A% 30.00 in 10.0 mi NW 3.5 mph - N/A   Clear
6:55 AM 17.8 °F 7.5 °F 13.5 °F 83% 30.01 in 10.0 mi NNW 8.1 mph - N/A   Clear
7:15 AM 20.8 °F 13.2 °F 15.3 °F 79% 30.01 in 10.0 mi NNW 5.8 mph - N/A   Clear
7:55 AM 21.7 °F 14.3 °F 15.1 °F 76% 30.03 in 10.0 mi NNW 5.8 mph - N/A   Clear
8:15 AM 24.6 °F 17.7 °F 16.0 °F 70% 30.04 in 10.0 mi NW 5.8 mph - N/A   Clear
8:35 AM 25.5 °F 18.7 °F 15.4 °F 66% 30.05 in 10.0 mi NW 5.8 mph - N/A   Clear
8:55 AM 28.6 °F 23.5 °F 16.9 °F 62% 30.06 in 10.0 mi NNW 4.6 mph - N/A   Clear
9:15 AM - - - N/A% 30.08 in 10.0 mi NNE 9.2 mph - N/A   Clear
9:35 AM 33.3 °F 26.4 °F 16.7 °F 51% 30.07 in 10.0 mi NNE 8.1 mph - N/A   Clear
9:55 AM - - - N/A% 30.07 in 10.0 mi NNE 8.1 mph - N/A   Clear
10:15 AM - - - N/A% 30.08 in 10.0 mi North 5.8 mph - N/A   Clear
10:55 AM - - - N/A% 30.05 in 10.0 mi North 5.8 mph - N/A   Clear
11:55 AM 44.8 °F 40.4 °F 15.3 °F 31% 30.02 in 10.0 mi NNE 8.1 mph - N/A   Clear
12:15 PM - - - N/A% 30.02 in 10.0 mi NW 12.7 mph - N/A   Clear
12:55 PM - - - N/A% 30.00 in 10.0 mi NNE 11.5 mph 16.1 mph N/A   Clear
1:15 PM - - - N/A% 30.00 in 10.0 mi East 8.1 mph - N/A   Clear
1:35 PM - - - N/A% 29.99 in 10.0 mi East 8.1 mph - N/A   Clear
1:55 PM - - - N/A% 30.00 in 10.0 mi NE 5.8 mph - N/A   Clear
2:15 PM - - - N/A% 30.00 in 10.0 mi NNE 12.7 mph 16.1 mph N/A   Clear
2:35 PM - - - N/A% 30.01 in 10.0 mi North 6.9 mph - N/A   Clear
2:55 PM - - - N/A% 30.01 in 10.0 mi NNE 9.2 mph - N/A   Clear
3:15 PM 53.6 °F - 10.2 °F 18% 30.02 in 10.0 mi North 13.8 mph 18.4 mph N/A   Clear
3:35 PM 53.6 °F - 9.5 °F 17% 30.02 in 10.0 mi NNW 10.4 mph - N/A   Clear
3:55 PM 53.6 °F - 10.4 °F 18% 30.02 in 10.0 mi North 9.2 mph - N/A   Clear
4:15 PM 52.0 °F - 11.8 °F 20% 30.03 in 10.0 mi NE 11.5 mph - N/A   Clear
4:35 PM 50.9 °F - 11.3 °F 20% 30.04 in 10.0 mi NNE 10.4 mph - N/A   Clear
4:55 PM 49.3 °F - 11.8 °F 22% 30.04 in 10.0 mi North 9.2 mph - N/A   Clear
5:15 PM 46.4 °F 40.4 °F 11.5 °F 24% 30.06 in 10.0 mi NNE 13.8 mph - N/A   Clear
5:35 PM 44.1 °F 38.1 °F 10.2 °F 25% 30.07 in 10.0 mi NNE 11.5 mph - N/A   Clear
5:55 PM 43.0 °F 37.2 °F 10.2 °F 26% 30.08 in 10.0 mi NNE 10.4 mph - N/A   Clear
6:15 PM 41.2 °F 35.0 °F 10.4 °F 28% 30.08 in 10.0 mi NNE 10.4 mph - N/A   Clear
6:35 PM 36.9 °F 32.2 °F 9.1 °F 32% 30.10 in 10.0 mi West 5.8 mph - N/A   Clear
6:55 PM 38.3 °F 32.5 °F 10.2 °F 31% 30.11 in 10.0 mi North 8.1 mph - N/A   Clear
7:15 PM 39.0 °F 30.3 °F 11.5 °F 32% 30.12 in 10.0 mi NNW 16.1 mph - N/A   Clear
7:35 PM 38.3 °F 31.9 °F 12.2 °F 34% 30.12 in 10.0 mi NNW 9.2 mph - N/A   Clear
7:55 PM 34.3 °F 27.7 °F 11.5 °F 39% 30.14 in 10.0 mi NW 8.1 mph - N/A   Clear
8:15 PM 33.3 °F 27.9 °F 12.7 °F 43% 30.15 in 10.0 mi NW 5.8 mph - N/A   Clear
8:35 PM 30.4 °F 22.9 °F 12.2 °F 47% 30.16 in 10.0 mi NW 8.1 mph - N/A   Clear
8:55 PM 31.8 °F 25.4 °F 13.1 °F 46% 30.17 in 10.0 mi WNW 6.9 mph - N/A   Clear
9:15 PM 30.9 °F 22.8 °F 12.9 °F 47% 30.18 in 10.0 mi NW 9.2 mph - N/A   Clear
9:35 PM 30.7 °F 22.6 °F 13.1 °F 48% 30.19 in 10.0 mi NNW 9.2 mph - N/A   Clear
10:15 PM 31.8 °F 23.9 °F 14.0 °F 48% 30.21 in 10.0 mi North 9.2 mph - N/A   Clear
10:35 PM 30.9 °F 22.8 °F 13.8 °F 49% 30.23 in 10.0 mi NNW 9.2 mph - N/A   Clear
10:55 PM 27.3 °F 19.1 °F 12.7 °F 54% 30.23 in 10.0 mi NW 8.1 mph - N/A   Clear
11:15 PM 28.9 °F 21.1 °F 13.6 °F 53% 30.24 in 10.0 mi NNW 8.1 mph - N/A   Clear
11:35 PM 26.6 °F 21.2 °F 12.2 °F 55% 30.24 in 10.0 mi North 4.6 mph - N/A   Clear
11:55 PM 24.3 °F 19.9 °F 11.5 °F 58% 30.26 in 10.0 mi NNE 3.5 mph - N/A   Clear